Weather observations for the past three days for
Belmar-Farmingdale
Imperial (Metric)
Date Time (edt) Wind (mph) Vis. (mi.) Weather Sky Cond. Temperature (ºF) Relative Humidity Wind Chill (°F) Heat Index (°F) Pressure Precipitation (in)
Air Dwpt 6 hour altimeter (in) sea level (mb) 1 hr 3 hr 6 hr
Max. Min.
16 06:56 NE 9 10.00 Fair CLR 64.9 54 68% 30.22 1023.2
16 05:56 N 7 10.00 Fair CLR 63 51.1 65% 30.2 1022.6
16 04:56 NE 8 10.00 Fair CLR 64.9 51.1 61% 30.17 1021.5
16 03:56 N 8 10.00 Fair CLR 64.9 52 63% 30.16 1021.1
16 02:56 N 5 10.00 Fair CLR 59 54 83% 30.15 1020.9
16 01:56 N 3 10.00 Fair CLR 62.1 54 78.1 61 75% 30.13 1020.4
16 00:56 S 3 10.00 Fair CLR 62.1 55 78% 30.12 1020.0
15 23:56 S 5 10.00 Fair CLR 66 55 68% 30.13 1020.2
15 22:56 S 6 10.00 Fair CLR 68 54 61% 30.12 1020.0
15 21:56 S 6 10.00 Fair CLR 70 54 57% 30.1 1019.2
15 20:56 S 7 0.00 Fair CLR 71.1 55 57% 30.08 1018.4
15 19:56 NW 3 0.00 Fair CLR 78.1 51.1 82 78.1 39% 79 30.06 1017.7
15 18:56 NW 9 0.00 A Few Clouds FEW080 80.1 48 33% 79 30.04 1017.2
15 17:56 NW 14 0.00 Mostly Cloudy BKN080 82 48 31% 81 30.03 1016.7
15 16:56 W 15 G 22 0.00 A Few Clouds FEW075 82 51.1 34% 81 30.02 1016.6
15 15:56 NW 10 0.00 Mostly Cloudy SCT065 BKN080 82 53.1 37% 81 30.01 1016.2
15 14:56 NW 10 0.00 Partly Cloudy SCT070 81 54 39% 81 30.01 1016.1
15 13:56 N 10 G 18 0.00 Partly Cloudy SCT060 80.1 53.1 81 70 39% 80 30.03 1016.8
15 12:56 N 12 0.00 Fair CLR 79 55 44% 80 30.02 1016.4
15 11:56 N 8 0.00 Fair CLR 78.1 55.9 47% 79 30.02 1016.4
15 10:56 N 12 G 20 10.00 Fair CLR 75.9 57 52% 78 30.01 1016.1
15 09:56 N 15 G 20 10.00 Fair CLR 73.9 57.9 57% 29.99 1015.5
15 08:56 N 12 10.00 Fair CLR 72 59 64% 29.99 1015.3
15 07:56 N 9 10.00 Fair CLR 70 62.1 70 62.1 76% 29.97 1014.9
15 06:56 NW 9 10.00 Fair CLR 64.9 62.1 90% 29.95 1014.0
15 05:56 NW 8 10.00 Fair CLR 63 62.1 97% 29.92 1013.2
15 04:56 W 6 10.00 Fair CLR 63 62.1 97% 29.9 1012.5
15 03:56 W 5 10.00 Fair CLR 64 63 96% 29.9 1012.3
15 02:56 W 5 10.00 Light Rain SCT110 64.9 64 97% 29.89 1012.2
15 01:56 W 5 10.00 A Few Clouds FEW120 64.9 64 66.9 64.9 97% 29.9 1012.5
15 00:56 NW 8 10.00 Overcast OVC008 64.9 64.9 100% 29.91 1012.8
14 23:56 SW 3 10.00 Overcast OVC008 66 64.9 96% 29.9 1012.3
14 22:56 SE 5 10.00 Overcast OVC080 66 64.9 96% 29.89 1012.1
14 21:56 Calm 10.00 Overcast BKN080 OVC120 66 63 90% 29.9 1012.5
14 20:56 NE 9 10.00 Mostly Cloudy FEW090 BKN120 66 63 90% 29.86 1011.2
14 19:56 NW 14 10.00 Light Rain OVC095 66 63 89.1 66 90% 29.89 1012.0 0.07 0.09
14 18:56 NW 33 G 39 0.00 Thunderstorm in Vicinity Rain and Windy FEW013 BKN044 OVC100 66.9 64 91% 29.85 1010.6 0.02
14 17:56 Vrbl 3 0.00 Mostly Cloudy SCT055 BKN070 BKN085 79 68 69% 81 29.81 1009.2
14 16:56 SE 9 0.00 Fair CLR 81 69.1 67% 84 29.82 1009.6
14 15:56 SE 13 0.00 Fair CLR 82 69.1 65% 85 29.83 1010.0
14 14:56 S 6 0.00 A Few Clouds FEW075 88 69.1 54% 92 29.85 1010.6
14 13:56 NW 7 0.00 Fair CLR 89.1 69.1 90 73 52% 94 29.87 1011.3
14 12:56 W 8 0.00 Mostly Cloudy BKN038 87.1 69.1 55% 91 29.89 1012.0
14 11:56 W 5 0.00 Partly Cloudy SCT032 86 69.1 57% 90 29.91 1012.6
14 10:56 S 10 0.00 Fair CLR 81 68 65% 84 29.91 1012.8
14 09:56 SW 8 0.00 Fair CLR 80.1 66.9 64% 82 29.92 1013.1
14 08:56 SW 14 0.00 Fair CLR 77 66 69% 79 29.93 1013.3
14 07:56 S 8 10.00 Fair CLR 73 64.9 73 68 76% 29.92 1013.2
14 06:56 S 7 10.00 A Few Clouds FEW065 70 63 79% 29.93 1013.3
14 05:56 S 7 10.00 A Few Clouds FEW055 69.1 62.1 78% 29.92 1013.1
14 04:56 SW 8 10.00 Fair CLR 69.1 61 76% 29.93 1013.2
14 03:56 S 7 10.00 Mostly Cloudy BKN060 69.1 59 70% 29.93 1013.4
14 02:56 S 8 10.00 Fair CLR 69.1 59 70% 29.94 1013.8
14 01:56 S 7 10.00 Fair CLR 69.1 59 77 69.1 70% 29.95 1014.1
14 00:56 S 7 0.00 Fair CLR 70 59 68% 29.97 1014.8
13 23:56 S 8 0.00 Fair CLR 71.1 59 66% 29.99 1015.4
13 22:56 S 8 0.00 Fair CLR 71.1 57.9 63% 29.99 1015.5
13 21:56 S 8 0.00 Fair CLR 72 57.9 61% 30 1015.8
13 20:56 S 8 0.00 Fair CLR 73.9 59 60% 29.99 1015.6
13 19:56 S 9 0.00 Fair CLR 77 60.1 82.9 77 56% 79 30 1015.8
13 18:56 S 9 0.00 Fair CLR 79 60.1 52% 80 29.98 1015.2
13 17:56 S 10 0.00 Fair CLR 80.1 63 56% 81 29.98 1015.0
13 16:56 S 12 0.00 Mostly Cloudy BKN060 BKN080 80.1 62.1 54% 81 29.98 1015.2
13 15:56 S 15 G 21 0.00 Mostly Cloudy SCT060 BKN075 82 62.1 51% 83 29.99 1015.4
13 14:56 S 10 0.00 A Few Clouds FEW065 82.9 59 44% 83 30 1015.9
13 13:56 SE 12 0.00 Mostly Cloudy BKN070 82.9 57.9 84 68 43% 83 30.02 1016.4
13 12:56 SE 9 0.00 Mostly Cloudy SCT045 BKN060 BKN075 82 63 53% 83 30.02 1016.7
13 11:56 Vrbl 3 0.00 Partly Cloudy SCT055 82 55.9 41% 82 30.04 1017.0
13 10:56 Vrbl 5 0.00 Fair CLR 82 60.1 47% 82 30.05 1017.3
13 09:56 S 10 0.00 Fair CLR 75.9 63 64% 78 30.05 1017.6
13 08:56 SW 7 10.00 Fair CLR 73 64 74% 30.06 1017.9
13 07:56 SW 5 10.00 Fair CLR 66.9 61 66.9 60.1 81% 30.06 1017.7
Date Time (edt) Wind (mph) Vis. (mi.) Weather Sky Cond. Air Dwpt Max. Min. Relative Humidity Wind Chill (°F) Heat Index (°F) altimeter (in) sea level (mb) 1 hr 3 hr 6 hr
6 hour
Temperature (ºF) Pressure Precipitation (in)